VOYAGER:2:PRINTED,ON:,27-APR-02:14:32:51:GROUP11
START_TIME,STOP_TIME,SECTOR,SCAN_DIR,E44RATE,E44UNC,E45RATE,E45UNC,E37RATE,E37UNC,P31RATE,P31UNC
1989-08-29T19:54:22.790 ,1989-08-29 19:54:46.790 ,9,0,24.3,1.00,0.375,0.125,0.000E+00,0.000E+00,6.42,0.516
1989-08-29T19:54:46.790 ,1989-08-29 19:55:10.790 ,9,0,9.92,0.641,0.375,0.125,0.000E+00,0.000E+00,5.21,0.465
1989-08-29T19:55:10.790 ,1989-08-29 19:55:17.170 ,7,1,9.17,1.38,0.000E+00,0.000E+00,-1.00,-1.00,5.54,0.994
1989-08-29T19:55:17.980 ,1989-08-29 19:56:22.730 ,8,1,8.09,0.359,0.486,9.183E-02,4.167E-02,4.167E-02,6.95,0.335
1989-08-29T19:56:22.790 ,1989-08-29 19:56:53.170 ,8,-1,8.03,0.517,0.451,0.125,0.000E+00,0.000E+00,6.55,0.463
1989-08-29T19:56:53.980 ,1989-08-29 19:57:41.170 ,7,-1,8.27,0.420,0.463,0.104,4.167E-02,4.167E-02,6.68,0.379
1989-08-29T19:57:41.980 ,1989-08-29 19:58:29.170 ,6,-1,8.50,0.425,0.370,9.259E-02,0.000E+00,0.000E+00,6.85,0.383
1989-08-29T19:58:29.980 ,1989-08-29 19:59:17.170 ,5,-1,7.30,0.405,0.556,0.113,0.167,8.333E-02,6.64,0.381
1989-08-29T19:59:17.980 ,1989-08-29 19:00:05.170 ,4,-1,8.03,0.414,0.579,0.116,4.167E-02,4.167E-02,6.47,0.376
1989-08-29T20:00:05.980 ,1989-08-29 20:00:53.170 ,3,-1,8.29,0.420,0.370,9.259E-02,0.000E+00,0.000E+00,6.29,0.371
1989-08-29T20:00:53.980 ,1989-08-29 20:01:41.170 ,2,-1,7.82,0.408,0.347,8.963E-02,4.167E-02,4.167E-02,7.01,0.385
1989-08-29T20:01:41.170 ,1989-08-29 20:02:29.540 ,1,-1,7.08,0.476,0.339,9.389E-02,4.167E-02,4.167E-02,6.69,0.457
1989-08-29T20:02:29.980 ,1989-08-29 20:03:17.160 ,1,1,8.12,0.416,0.347,8.963E-02,0.000E+00,0.000E+00,5.95,0.358
1989-08-29T20:03:17.980 ,1989-08-29 20:04:05.160 ,2,1,7.71,0.405,0.509,0.109,4.167E-02,4.167E-02,6.34,0.369
1989-08-29T20:04:05.980 ,1989-08-29 20:04:53.170 ,3,1,7.85,0.415,0.278,8.016E-02,0.000E+00,0.000E+00,6.93,0.382
1989-08-29T20:04:53.980 ,1989-08-29 20:05:41.170 ,4,1,7.78,0.407,0.370,9.259E-02,0.000E+00,0.000E+00,6.23,0.363
1989-08-29T20:05:41.980 ,1989-08-29 20:06:29.170 ,5,1,7.67,0.404,0.347,8.963E-02,0.167,8.333E-02,6.57,0.376
1989-08-29T20:06:29.980 ,1989-08-29 20:07:17.170 ,6,1,7.84,0.409,0.509,0.109,0.000E+00,0.000E+00,6.61,0.383
1989-08-29T20:07:17.980 ,1989-08-29 20:08:05.170 ,7,1,8.16,0.417,0.394,9.543E-02,8.333E-02,5.892E-02,5.69,0.363
1989-08-29T20:08:05.980 ,1989-08-29 20:09:10.730 ,8,1,7.72,0.351,0.486,9.183E-02,4.167E-02,4.167E-02,6.39,0.318
1989-08-29T20:09:10.790 ,1989-08-29 20:09:41.160 ,8,-1,9.10,0.550,0.347,0.110,4.167E-02,4.167E-02,7.20,0.492
1989-08-29T20:09:41.980 ,1989-08-29 20:10:29.160 ,7,-1,9.17,0.441,0.324,8.659E-02,0.000E+00,0.000E+00,5.84,0.364
1989-08-29T20:10:29.980 ,1989-08-29 20:11:17.160 ,6,-1,8.33,0.422,0.278,8.016E-02,0.000E+00,0.000E+00,6.83,0.390
1989-08-29T20:11:17.980 ,1989-08-29 20:12:05.160 ,5,-1,8.07,0.420,0.370,9.259E-02,4.167E-02,4.167E-02,6.36,0.366
1989-08-29T20:12:05.980 ,1989-08-29 20:12:53.160 ,4,-1,8.31,0.421,0.463,0.104,4.167E-02,4.167E-02,7.21,0.397
1989-08-29T20:12:53.980 ,1989-08-29 20:13:41.160 ,3,-1,7.63,0.403,0.301,8.346E-02,8.333E-02,5.892E-02,5.75,0.355
1989-08-29T20:13:41.980 ,1989-08-29 20:14:29.160 ,2,-1,7.52,0.405,0.463,0.104,4.167E-02,4.167E-02,7.20,0.391
1989-08-29T20:14:29.160 ,1989-08-29 20:15:17.540 ,1,-1,7.53,0.511,0.365,9.741E-02,0.000E+00,0.000E+00,7.75,0.492
1989-08-29T20:15:17.980 ,1989-08-29 20:16:05.160 ,1,1,8.21,0.418,0.440,0.101,4.167E-02,4.167E-02,7.00,0.389
1989-08-29T20:16:05.980 ,1989-08-29 20:16:53.160 ,2,1,7.61,0.403,0.255,7.675E-02,0.167,8.333E-02,6.91,0.389
1989-08-29T20:16:53.980 ,1989-08-29 20:17:41.160 ,3,1,7.91,0.410,0.463,0.104,4.167E-02,4.167E-02,6.43,0.374
1989-08-29T20:17:41.980 ,1989-08-29 20:18:29.160 ,4,1,7.65,0.404,0.278,8.016E-02,0.000E+00,0.000E+00,7.26,0.395
1989-08-29T20:18:29.980 ,1989-08-29 20:19:16.730 ,5,1,7.91,0.410,0.370,9.259E-02,4.167E-02,4.167E-02,7.10,0.387
1989-08-29T20:19:17.160 ,1989-08-29 20:19:34.730 ,6,1,8.04,0.691,0.417,0.170,-1.00,-1.00,6.13,0.618
1989-08-29T20:19:34.790 ,1989-08-29 20:19:58.790 ,9,0,8.26,0.791,0.521,0.233,0.000E+00,0.000E+00,6.25,0.678
1989-08-29T20:21:07.190 ,1989-08-29 20:21:31.190 ,9,0,7.22,1.42,0.000E+00,0.000E+00,-1.00,-1.00,6.88,1.47
1989-08-29T20:21:10.790 ,1989-08-29 20:21:34.790 ,9,0,8.33,0.760,6.944E-02,6.944E-02,0.000E+00,0.000E+00,5.90,0.640
1989-08-29T20:21:34.790 ,1989-08-29 20:21:58.730 ,8,0,8.68,0.616,0.313,0.128,-1.00,-1.00,6.56,0.540
1989-08-29T20:21:58.790 ,1989-08-29 20:22:29.160 ,8,-1,8.63,0.536,0.694,0.155,4.167E-02,4.167E-02,7.07,0.482
1989-08-29T20:22:29.980 ,1989-08-29 20:23:17.160 ,7,-1,8.42,0.424,0.440,0.101,4.167E-02,4.167E-02,6.89,0.382
1989-08-29T20:23:17.980 ,1989-08-29 20:24:05.160 ,6,-1,7.46,0.404,0.440,0.101,0.000E+00,0.000E+00,7.11,0.394
1989-08-29T20:24:05.980 ,1989-08-29 20:24:53.160 ,5,-1,6.90,0.384,0.463,0.104,4.167E-02,4.167E-02,6.01,0.362
1989-08-29T20:24:53.980 ,1989-08-29 20:25:41.160 ,4,-1,7.24,0.398,0.463,0.104,8.333E-02,5.892E-02,6.03,0.360
1989-08-29T20:25:41.980 ,1989-08-29 20:26:29.160 ,3,-1,8.48,0.425,0.324,8.659E-02,4.167E-02,4.167E-02,7.00,0.389
1989-08-29T20:26:29.980 ,1989-08-29 20:27:17.160 ,2,-1,8.20,0.423,0.347,8.963E-02,4.167E-02,4.167E-02,7.13,0.395
1989-08-29T20:27:17.160 ,1989-08-29 20:28:05.540 ,1,-1,7.29,0.502,0.339,9.389E-02,0.000E+00,0.000E+00,6.09,0.436
1989-08-29T20:28:05.980 ,1989-08-29 20:28:53.160 ,1,1,7.86,0.409,0.440,0.101,4.167E-02,4.167E-02,6.70,0.379
1989-08-29T20:28:53.980 ,1989-08-29 20:29:41.160 ,2,1,7.91,0.410,0.394,9.543E-02,4.167E-02,4.167E-02,6.67,0.375
1989-08-29T20:29:41.980 ,1989-08-29 20:30:29.160 ,3,1,7.50,0.405,0.301,8.346E-02,4.167E-02,4.167E-02,6.45,0.376
1989-08-29T20:30:29.980 ,1989-08-29 20:31:17.160 ,4,1,7.81,0.414,0.394,9.543E-02,4.167E-02,4.167E-02,6.96,0.387
1989-08-29T20:31:17.980 ,1989-08-29 20:32:05.160 ,5,1,8.00,0.418,0.509,0.109,0.000E+00,0.000E+00,6.93,0.390
1989-08-29T20:32:05.980 ,1989-08-29 20:32:53.160 ,6,1,7.76,0.406,0.394,9.543E-02,4.167E-02,4.167E-02,6.66,0.379
1989-08-29T20:32:53.980 ,1989-08-29 20:33:41.160 ,7,1,8.03,0.414,0.278,8.016E-02,0.000E+00,0.000E+00,6.60,0.380
1989-08-29T20:33:41.980 ,1989-08-29 20:34:46.730 ,8,1,8.51,0.366,0.382,8.140E-02,4.167E-02,4.167E-02,6.57,0.327
1989-08-29T20:34:46.790 ,1989-08-29 20:35:17.160 ,8,-1,8.26,0.535,0.243,9.183E-02,0.000E+00,0.000E+00,6.42,0.465
1989-08-29T20:35:17.970 ,1989-08-29 20:35:34.720 ,7,-1,10.2,0.779,0.556,0.196,-1.00,-1.00,6.06,0.615
1989-08-29T20:35:34.790 ,1989-08-29 20:35:58.790 ,9,0,8.03,0.593,0.469,0.156,0.000E+00,0.000E+00,7.07,0.551
1989-08-29T20:37:14.390 ,1989-08-29 20:37:38.390 ,9,0,6.72,0.573,0.458,0.138,4.167E-02,4.167E-02,6.40,0.565
1989-08-29T20:37:34.790 ,1989-08-29 20:37:41.160 ,5,-1,7.67,1.13,0.417,0.295,-1.00,-1.00,7.81,1.10
1989-08-29T20:37:41.970 ,1989-08-29 20:38:29.160 ,4,-1,7.35,0.396,0.509,0.109,0.000E+00,0.000E+00,6.56,0.382
1989-08-29T20:38:29.970 ,1989-08-29 20:39:17.160 ,3,-1,7.50,0.400,0.440,0.101,8.333E-02,5.892E-02,6.31,0.365
1989-08-29T20:39:17.970 ,1989-08-29 20:40:05.160 ,2,-1,7.59,0.408,0.556,0.113,0.000E+00,0.000E+00,6.73,0.384
1989-08-29T20:40:05.160 ,1989-08-29 20:40:53.540 ,1,-1,7.80,0.509,0.703,0.135,4.167E-02,4.167E-02,6.58,0.465
1989-08-29T20:40:53.970 ,1989-08-29 20:41:41.160 ,1,1,7.27,0.405,0.486,0.106,4.167E-02,4.167E-02,7.25,0.392
1989-08-29T20:41:41.970 ,1989-08-29 20:42:29.160 ,2,1,7.48,0.400,0.486,0.106,0.000E+00,0.000E+00,6.67,0.375
1989-08-29T20:42:29.970 ,1989-08-29 20:43:17.160 ,3,1,7.48,0.400,0.556,0.113,0.000E+00,0.000E+00,7.31,0.393
1989-08-29T20:43:17.970 ,1989-08-29 20:44:05.160 ,4,1,8.12,0.416,0.394,9.543E-02,0.000E+00,0.000E+00,5.56,0.352
1989-08-29T20:44:05.970 ,1989-08-29 20:44:53.160 ,5,1,7.55,0.411,0.347,8.963E-02,0.000E+00,0.000E+00,5.83,0.357
1989-08-29T20:44:53.970 ,1989-08-29 20:45:41.160 ,6,1,7.24,0.393,0.324,8.659E-02,4.167E-02,4.167E-02,6.95,0.390
1989-08-29T20:45:41.970 ,1989-08-29 20:46:29.160 ,7,1,8.55,0.427,0.440,0.101,0.125,7.217E-02,6.97,0.383
1989-08-29T20:46:29.970 ,1989-08-29 20:47:34.720 ,8,1,7.80,0.350,0.434,8.681E-02,0.000E+00,0.000E+00,6.07,0.316
1989-08-29T20:47:34.790 ,1989-08-29 20:48:05.160 ,8,-1,8.33,0.526,0.451,0.125,4.167E-02,4.167E-02,5.26,0.415
1989-08-29T20:48:05.970 ,1989-08-29 20:48:53.160 ,7,-1,8.18,0.428,0.370,9.259E-02,4.167E-02,4.167E-02,6.75,0.384
1989-08-29T20:48:53.970 ,1989-08-29 20:49:41.160 ,6,-1,7.89,0.416,0.301,8.346E-02,0.000E+00,0.000E+00,5.64,0.358
1989-08-29T20:49:41.970 ,1989-08-29 20:50:29.160 ,5,-1,7.18,0.392,0.278,8.016E-02,4.167E-02,4.167E-02,6.47,0.373
1989-08-29T20:50:29.970 ,1989-08-29 20:51:17.160 ,4,-1,7.21,0.397,0.509,0.109,0.000E+00,0.000E+00,6.55,0.386
1989-08-29T20:51:17.970 ,1989-08-29 20:52:05.160 ,3,-1,8.12,0.416,0.301,8.346E-02,8.333E-02,5.892E-02,5.75,0.361
1989-08-29T20:52:05.970 ,1989-08-29 20:52:53.160 ,2,-1,7.05,0.398,0.394,9.543E-02,4.167E-02,4.167E-02,6.83,0.383
1989-08-29T20:52:53.160 ,1989-08-29 20:53:41.540 ,1,-1,7.93,0.513,0.417,0.104,0.000E+00,0.000E+00,6.38,0.451
1989-08-29T20:53:41.970 ,1989-08-29 20:54:29.160 ,1,1,8.11,0.421,0.463,0.104,4.167E-02,4.167E-02,6.80,0.386
1989-08-29T20:54:29.970 ,1989-08-29 20:54:46.720 ,2,1,6.60,0.650,0.347,0.155,-1.00,-1.00,6.79,0.635
1989-08-29T20:54:46.790 ,1989-08-29 20:55:10.790 ,9,0,7.54,0.574,0.573,0.173,0.000E+00,0.000E+00,7.50,0.568
1989-08-29T20:55:28.190 ,1989-08-29 20:55:52.190 ,9,0,6.67,0.961,0.625,0.255,-1.00,-1.00,6.88,1.04
1989-08-29T20:55:34.790 ,1989-08-29 20:55:58.790 ,9,0,7.67,0.564,0.375,0.125,0.000E+00,0.000E+00,6.63,0.525
1989-08-29T20:55:58.790 ,1989-08-29 20:56:05.160 ,3,1,7.83,1.14,0.625,0.361,-1.00,-1.00,5.47,0.924
1989-08-29T20:56:05.970 ,1989-08-29 20:56:53.160 ,4,1,8.08,0.415,0.347,8.963E-02,0.000E+00,0.000E+00,7.00,0.391
1989-08-29T20:56:53.970 ,1989-08-29 20:57:41.160 ,5,1,8.63,0.429,0.417,9.818E-02,0.000E+00,0.000E+00,6.81,0.383
1989-08-29T20:57:41.970 ,1989-08-29 20:58:29.160 ,6,1,7.39,0.402,0.486,0.106,8.333E-02,5.892E-02,6.16,0.364
1989-08-29T20:58:29.970 ,1989-08-29 20:59:17.160 ,7,1,9.08,0.440,0.579,0.116,8.333E-02,5.892E-02,6.75,0.380
1989-08-29T20:59:17.970 ,1989-08-29 20:00:22.720 ,8,1,7.80,0.360,0.469,9.016E-02,0.000E+00,0.000E+00,6.36,0.319
1989-08-29T21:00:22.790 ,1989-08-29 21:00:53.160 ,8,-1,8.60,0.535,0.417,0.120,8.333E-02,5.892E-02,6.22,0.452
1989-08-29T21:00:53.970 ,1989-08-29 21:01:34.720 ,7,-1,8.50,0.456,0.391,0.101,0.000E+00,0.000E+00,7.10,0.420
1989-08-29T21:01:34.790 ,1989-08-29 21:01:58.790 ,9,0,35.3,1.63,0.347,0.155,4.167E-02,4.167E-02,6.76,0.705
1989-08-29T21:02:34.180 ,1989-08-29 21:02:58.180 ,9,0,7.00,1.08,0.000E+00,0.000E+00,0.000E+00,0.000E+00,8.13,1.13
1989-08-29T21:02:46.790 ,1989-08-29 21:03:10.790 ,9,0,9.24,0.836,0.556,0.196,0.125,7.217E-02,6.10,0.669
1989-08-29T21:03:21.750 ,1989-08-29 21:03:22.560 ,5,-1,5.83,2.20,-1.00,-1.00,-1.00,-1.00,6.25,2.79
1989-08-29T21:03:23.370 ,1989-08-29 21:03:40.120 ,4,-1,8.45,0.709,0.000E+00,0.000E+00,-1.00,-1.00,7.50,0.668
1989-08-29T21:03:34.790 ,1989-08-29 21:03:58.720 ,4,1,8.83,0.606,0.375,0.125,0.000E+00,0.000E+00,7.08,0.542
1989-08-29T21:03:58.790 ,1989-08-29 21:04:05.160 ,4,-1,7.50,1.12,0.417,0.295,-1.00,-1.00,7.19,1.06
1989-08-29T21:04:05.970 ,1989-08-29 21:04:53.160 ,3,-1,8.18,0.418,0.509,0.109,4.167E-02,4.167E-02,5.57,0.349
1989-08-29T21:04:53.970 ,1989-08-29 21:05:41.160 ,2,-1,7.85,0.415,0.440,0.101,4.167E-02,4.167E-02,6.56,0.379
1989-08-29T21:05:41.160 ,1989-08-29 21:06:29.540 ,1,-1,7.83,0.510,0.469,0.110,4.167E-02,4.167E-02,6.81,0.461
1989-08-29T21:06:29.970 ,1989-08-29 21:07:17.160 ,1,1,8.48,0.425,0.370,9.259E-02,0.000E+00,0.000E+00,6.69,0.377
1989-08-29T21:07:17.970 ,1989-08-29 21:08:05.160 ,2,1,8.38,0.423,0.532,0.111,8.333E-02,5.892E-02,6.67,0.375
1989-08-29T21:08:05.970 ,1989-08-29 21:08:53.160 ,3,1,8.31,0.421,0.394,9.543E-02,4.167E-02,4.167E-02,7.18,0.389
1989-08-29T21:08:53.970 ,1989-08-29 21:09:41.160 ,4,1,7.50,0.405,0.347,8.963E-02,0.000E+00,0.000E+00,6.95,0.390
1989-08-29T21:09:41.970 ,1989-08-29 21:10:29.160 ,5,1,7.35,0.401,0.579,0.116,4.167E-02,4.167E-02,6.84,0.381
1989-08-29T21:10:29.970 ,1989-08-29 21:11:17.160 ,6,1,7.14,0.390,0.394,9.543E-02,4.167E-02,4.167E-02,6.59,0.376
1989-08-29T21:11:17.970 ,1989-08-29 21:12:05.160 ,7,1,8.31,0.421,0.394,9.543E-02,0.000E+00,0.000E+00,6.80,0.379
1989-08-29T21:12:05.970 ,1989-08-29 21:13:10.720 ,8,1,8.79,0.371,0.347,7.764E-02,0.125,7.217E-02,7.21,0.339
1989-08-29T21:13:10.780 ,1989-08-29 21:13:41.160 ,8,-1,8.80,0.540,0.313,0.104,0.000E+00,0.000E+00,6.71,0.470
1989-08-29T21:13:41.970 ,1989-08-29 21:14:29.160 ,7,-1,9.17,0.454,0.556,0.113,0.000E+00,0.000E+00,7.05,0.389
1989-08-29T21:14:29.970 ,1989-08-29 21:15:17.160 ,6,-1,8.48,0.425,0.278,8.016E-02,4.167E-02,4.167E-02,6.43,0.374
1989-08-29T21:15:17.970 ,1989-08-29 21:16:05.160 ,5,-1,7.76,0.406,0.231,7.317E-02,0.000E+00,0.000E+00,6.40,0.371
1989-08-29T21:16:05.970 ,1989-08-29 21:16:53.160 ,4,-1,7.35,0.396,0.579,0.116,4.167E-02,4.167E-02,6.70,0.379
1989-08-29T21:16:53.970 ,1989-08-29 21:17:41.160 ,3,-1,8.31,0.426,0.370,9.259E-02,4.167E-02,4.167E-02,6.85,0.383
1989-08-29T21:17:41.970 ,1989-08-29 21:18:29.160 ,2,-1,7.52,0.401,0.347,8.963E-02,0.000E+00,0.000E+00,7.00,0.391
1989-08-29T21:18:29.160 ,1989-08-29 21:19:17.530 ,1,-1,8.19,0.533,0.443,0.107,0.000E+00,0.000E+00,6.78,0.471
1989-08-29T21:19:17.970 ,1989-08-29 21:20:05.160 ,1,1,8.12,0.416,0.440,0.101,0.000E+00,0.000E+00,7.04,0.393
1989-08-29T21:20:05.970 ,1989-08-29 21:20:53.160 ,2,1,8.00,0.418,0.370,9.259E-02,8.333E-02,5.892E-02,6.51,0.374
1989-08-29T21:20:53.970 ,1989-08-29 21:21:41.160 ,3,1,7.79,0.419,0.440,0.101,0.000E+00,0.000E+00,6.36,0.377
1989-08-29T21:21:41.970 ,1989-08-29 21:22:29.160 ,4,1,8.08,0.415,0.347,8.963E-02,8.333E-02,5.892E-02,7.13,0.395
1989-08-29T21:22:29.970 ,1989-08-29 21:23:17.160 ,5,1,7.46,0.398,0.278,8.016E-02,0.000E+00,0.000E+00,6.10,0.362
1989-08-29T21:23:17.970 ,1989-08-29 21:24:05.160 ,6,1,7.37,0.402,0.648,0.122,8.333E-02,5.892E-02,6.59,0.373
1989-08-29T21:24:05.970 ,1989-08-29 21:24:53.160 ,7,1,6.83,0.397,0.417,9.818E-02,4.167E-02,4.167E-02,5.76,0.365
1989-08-29T21:24:53.970 ,1989-08-29 21:25:58.720 ,8,1,8.13,0.361,0.417,8.503E-02,4.167E-02,4.167E-02,6.63,0.321
1989-08-29T21:25:58.780 ,1989-08-29 21:26:29.160 ,8,-1,7.87,0.511,0.486,0.130,4.167E-02,4.167E-02,5.68,0.450
1989-08-29T21:26:29.970 ,1989-08-29 21:27:17.160 ,7,-1,8.68,0.430,0.532,0.111,0.000E+00,0.000E+00,6.04,0.374
1989-08-29T21:27:17.970 ,1989-08-29 21:28:05.160 ,6,-1,8.48,0.425,0.394,9.543E-02,4.167E-02,4.167E-02,6.85,0.383
1989-08-29T21:28:05.970 ,1989-08-29 21:28:53.160 ,5,-1,8.18,0.418,0.556,0.113,0.000E+00,0.000E+00,6.48,0.384
1989-08-29T21:28:53.970 ,1989-08-29 21:29:41.160 ,4,-1,8.31,0.421,0.532,0.111,4.167E-02,4.167E-02,6.27,0.373
1989-08-29T21:29:41.970 ,1989-08-29 21:30:29.160 ,3,-1,8.20,0.423,0.278,8.016E-02,0.000E+00,0.000E+00,6.86,0.381
1989-08-29T21:30:29.970 ,1989-08-29 21:31:17.160 ,2,-1,8.11,0.421,0.301,8.346E-02,4.167E-02,4.167E-02,6.25,0.370
1989-08-29T21:31:17.160 ,1989-08-29 21:32:05.530 ,1,-1,7.92,0.503,0.521,0.116,4.167E-02,4.167E-02,6.15,0.443
1989-08-29T21:32:05.970 ,1989-08-29 21:32:53.160 ,1,1,7.63,0.403,0.509,0.109,0.000E+00,0.000E+00,6.58,0.379
1989-08-29T21:32:53.970 ,1989-08-29 21:33:41.160 ,2,1,6.64,0.398,0.417,9.818E-02,8.333E-02,5.892E-02,5.92,0.360
1989-08-29T21:33:41.970 ,1989-08-29 21:34:29.160 ,3,1,7.21,0.402,0.417,9.818E-02,0.000E+00,0.000E+00,6.57,0.373
1989-08-29T21:34:29.970 ,1989-08-29 21:35:17.160 ,4,1,8.42,0.429,0.347,8.963E-02,8.333E-02,5.892E-02,6.57,0.373
1989-08-29T21:35:17.970 ,1989-08-29 21:36:05.160 ,5,1,7.61,0.408,0.324,8.659E-02,4.167E-02,4.167E-02,6.92,0.386
1989-08-29T21:36:05.970 ,1989-08-29 21:36:53.160 ,6,1,8.35,0.422,0.347,8.963E-02,4.167E-02,4.167E-02,5.94,0.360
1989-08-29T21:36:53.970 ,1989-08-29 21:37:41.160 ,7,1,9.08,0.440,0.347,8.963E-02,0.000E+00,0.000E+00,6.70,0.390
1989-08-29T21:37:41.970 ,1989-08-29 21:38:46.720 ,8,1,8.43,0.363,0.469,9.016E-02,4.167E-02,4.167E-02,7.04,0.340
1989-08-29T21:38:46.780 ,1989-08-29 21:39:17.160 ,8,-1,7.80,0.509,0.590,0.143,0.000E+00,0.000E+00,6.91,0.476
1989-08-29T21:39:17.970 ,1989-08-29 21:40:05.160 ,7,-1,8.00,0.418,0.532,0.111,4.167E-02,4.167E-02,7.17,0.400
1989-08-29T21:40:05.970 ,1989-08-29 21:40:53.160 ,6,-1,7.14,0.390,0.394,9.543E-02,0.000E+00,0.000E+00,7.35,0.397
1989-08-29T21:40:53.970 ,1989-08-29 21:41:41.160 ,5,-1,7.21,0.397,0.440,0.101,0.000E+00,0.000E+00,6.14,0.364
1989-08-29T21:41:41.970 ,1989-08-29 21:42:29.160 ,4,-1,7.85,0.415,0.440,0.101,0.000E+00,0.000E+00,6.58,0.379
1989-08-29T21:42:29.970 ,1989-08-29 21:43:17.160 ,3,-1,8.08,0.415,0.394,9.543E-02,8.333E-02,5.892E-02,6.38,0.370
1989-08-29T21:43:17.970 ,1989-08-29 21:44:05.160 ,2,-1,7.48,0.404,0.463,0.104,4.167E-02,4.167E-02,7.18,0.392
1989-08-29T21:44:05.160 ,1989-08-29 21:44:53.530 ,1,-1,7.37,0.495,0.286,8.634E-02,4.167E-02,4.167E-02,6.88,0.463
1989-08-29T21:44:53.970 ,1989-08-29 21:45:41.160 ,1,1,7.88,0.410,0.394,9.543E-02,4.167E-02,4.167E-02,6.32,0.372
1989-08-29T21:45:41.970 ,1989-08-29 21:46:29.160 ,2,1,6.48,0.393,0.486,0.106,4.167E-02,4.167E-02,6.10,0.359
1989-08-29T21:46:29.970 ,1989-08-29 21:47:17.160 ,3,1,7.76,0.406,0.625,0.120,0.000E+00,0.000E+00,6.53,0.371
1989-08-29T21:47:17.970 ,1989-08-29 21:48:05.160 ,4,1,7.63,0.409,0.556,0.113,0.000E+00,0.000E+00,6.57,0.376
1989-08-29T21:48:05.970 ,1989-08-29 21:48:53.160 ,5,1,7.81,0.414,0.417,9.818E-02,0.000E+00,0.000E+00,6.70,0.379
1989-08-29T21:48:53.970 ,1989-08-29 21:49:41.160 ,6,1,8.53,0.432,0.394,9.543E-02,4.167E-02,4.167E-02,6.47,0.373
1989-08-29T21:49:41.970 ,1989-08-29 21:50:29.160 ,7,1,8.04,0.425,0.394,9.543E-02,0.000E+00,0.000E+00,6.80,0.386
1989-08-29T21:50:29.970 ,1989-08-29 21:51:34.720 ,8,1,8.29,0.360,0.399,8.323E-02,4.167E-02,4.167E-02,6.79,0.332
1989-08-29T21:51:34.780 ,1989-08-29 21:52:05.160 ,8,-1,7.33,0.494,0.382,0.115,0.000E+00,0.000E+00,7.64,0.507
1989-08-29T21:52:05.970 ,1989-08-29 21:52:53.160 ,7,-1,9.36,0.446,0.347,8.963E-02,8.333E-02,5.892E-02,6.90,0.392
1989-08-29T21:52:53.970 ,1989-08-29 21:53:41.160 ,6,-1,8.55,0.433,0.370,9.259E-02,4.167E-02,4.167E-02,7.37,0.402
1989-08-29T21:53:41.970 ,1989-08-29 21:54:29.160 ,5,-1,6.73,0.379,0.324,8.659E-02,0.000E+00,0.000E+00,6.01,0.362
1989-08-29T21:54:29.970 ,1989-08-29 21:55:17.160 ,4,-1,7.28,0.399,0.208,6.943E-02,0.000E+00,0.000E+00,6.52,0.381
1989-08-29T21:55:17.970 ,1989-08-29 21:56:05.160 ,3,-1,7.21,0.397,0.278,8.016E-02,0.000E+00,0.000E+00,7.14,0.388
1989-08-29T21:56:05.970 ,1989-08-29 21:56:53.160 ,2,-1,7.95,0.411,0.509,0.109,4.167E-02,4.167E-02,5.89,0.362
1989-08-29T21:56:53.160 ,1989-08-29 21:57:41.530 ,1,-1,7.50,0.510,0.495,0.113,4.167E-02,4.167E-02,6.15,0.450
1989-08-29T21:57:41.970 ,1989-08-29 21:58:29.160 ,1,1,7.46,0.398,0.440,0.101,0.000E+00,0.000E+00,6.12,0.369
1989-08-29T21:58:29.970 ,1989-08-29 21:59:17.160 ,2,1,7.57,0.407,0.463,0.104,4.167E-02,4.167E-02,6.53,0.374
1989-08-29T21:59:17.970 ,1989-08-29 21:00:05.160 ,3,1,8.48,0.425,0.417,9.818E-02,4.167E-02,4.167E-02,5.92,0.360
1989-08-29T22:00:05.970 ,1989-08-29 22:00:53.160 ,4,1,7.54,0.407,0.394,9.543E-02,0.000E+00,0.000E+00,7.24,0.398
1989-08-29T22:00:53.970 ,1989-08-29 22:01:41.160 ,5,1,7.65,0.404,0.532,0.111,0.000E+00,0.000E+00,6.50,0.371
1989-08-29T22:01:41.970 ,1989-08-29 22:02:29.160 ,6,1,8.22,0.424,0.486,0.106,0.000E+00,0.000E+00,5.74,0.358
1989-08-29T22:02:29.970 ,1989-08-29 22:03:17.160 ,7,1,8.46,0.424,0.625,0.120,4.167E-02,4.167E-02,6.36,0.373
1989-08-29T22:03:17.970 ,1989-08-29 22:04:22.720 ,8,1,8.33,0.361,0.313,7.363E-02,0.000E+00,0.000E+00,6.54,0.325
1989-08-29T22:04:22.780 ,1989-08-29 22:04:53.160 ,8,-1,9.10,0.550,0.451,0.125,8.333E-02,5.892E-02,6.94,0.477
1989-08-29T22:04:53.970 ,1989-08-29 22:05:41.150 ,7,-1,8.03,0.419,0.394,9.543E-02,8.333E-02,5.892E-02,5.98,0.365
1989-08-29T22:05:41.970 ,1989-08-29 22:06:29.150 ,6,-1,8.27,0.420,0.486,0.106,4.167E-02,4.167E-02,6.34,0.369
1989-08-29T22:06:29.970 ,1989-08-29 22:07:17.150 ,5,-1,7.74,0.411,0.463,0.104,0.000E+00,0.000E+00,5.82,0.354
1989-08-29T22:07:17.970 ,1989-08-29 22:08:05.150 ,4,-1,7.76,0.406,0.394,9.543E-02,0.000E+00,0.000E+00,6.84,0.387
1989-08-29T22:08:05.970 ,1989-08-29 22:08:53.160 ,3,-1,7.11,0.394,0.255,7.675E-02,4.167E-02,4.167E-02,6.12,0.366
1989-08-29T22:08:53.970 ,1989-08-29 22:09:41.160 ,2,-1,7.21,0.397,0.463,0.104,0.000E+00,0.000E+00,6.62,0.381
1989-08-29T22:09:41.160 ,1989-08-29 22:10:29.530 ,1,-1,6.45,0.483,0.417,0.104,8.333E-02,5.892E-02,6.70,0.463
1989-08-29T22:10:29.970 ,1989-08-29 22:11:17.160 ,1,1,7.59,0.413,0.463,0.104,4.167E-02,4.167E-02,6.25,0.370
1989-08-29T22:11:17.970 ,1989-08-29 22:12:05.160 ,2,1,7.76,0.406,0.301,8.346E-02,0.000E+00,0.000E+00,6.41,0.377
1989-08-29T22:12:05.970 ,1989-08-29 22:12:53.160 ,3,1,8.44,0.430,0.556,0.113,0.000E+00,0.000E+00,6.80,0.379
1989-08-29T22:12:53.970 ,1989-08-29 22:13:41.160 ,4,1,7.85,0.415,0.440,0.101,0.000E+00,0.000E+00,6.80,0.386
1989-08-29T22:13:41.970 ,1989-08-29 22:14:29.160 ,5,1,7.35,0.401,0.440,0.101,4.167E-02,4.167E-02,6.18,0.371
1989-08-29T22:14:29.970 ,1989-08-29 22:15:17.160 ,6,1,7.61,0.403,0.370,9.259E-02,4.167E-02,4.167E-02,7.44,0.396
1989-08-29T22:15:17.970 ,1989-08-29 22:16:05.160 ,7,1,8.74,0.432,0.394,9.543E-02,8.333E-02,5.892E-02,6.21,0.366
1989-08-29T22:16:05.970 ,1989-08-29 22:17:10.720 ,8,1,7.64,0.346,0.434,8.681E-02,8.333E-02,5.892E-02,6.65,0.324
1989-08-29T22:17:10.780 ,1989-08-29 22:17:41.160 ,8,-1,8.10,0.519,0.174,7.764E-02,0.000E+00,0.000E+00,7.17,0.485
1989-08-29T22:17:41.970 ,1989-08-29 22:18:29.150 ,7,-1,8.82,0.433,0.347,8.963E-02,4.167E-02,4.167E-02,6.56,0.379
1989-08-29T22:18:29.970 ,1989-08-29 22:19:17.150 ,6,-1,8.16,0.417,0.532,0.111,4.167E-02,4.167E-02,6.67,0.386
1989-08-29T22:19:17.970 ,1989-08-29 22:20:05.150 ,5,-1,8.46,0.424,0.417,9.818E-02,0.125,7.217E-02,6.18,0.371
1989-08-29T22:20:05.970 ,1989-08-29 22:20:53.150 ,4,-1,7.22,0.393,0.278,8.016E-02,8.333E-02,5.892E-02,6.76,0.388
1989-08-29T22:20:53.970 ,1989-08-29 22:21:41.150 ,3,-1,7.41,0.408,0.440,0.101,0.000E+00,0.000E+00,6.81,0.389
1989-08-29T22:21:41.970 ,1989-08-29 22:22:29.150 ,2,-1,8.03,0.414,0.301,8.346E-02,0.000E+00,0.000E+00,6.86,0.387
1989-08-29T22:22:29.150 ,1989-08-29 22:23:17.530 ,1,-1,8.77,0.540,0.521,0.116,4.167E-02,4.167E-02,7.44,0.481
1989-08-29T22:23:17.970 ,1989-08-29 22:24:05.150 ,1,1,7.44,0.399,0.370,9.259E-02,0.000E+00,0.000E+00,6.68,0.379
1989-08-29T22:24:05.970 ,1989-08-29 22:24:53.150 ,2,1,7.54,0.401,0.486,0.106,0.000E+00,0.000E+00,5.80,0.362
1989-08-29T22:24:53.970 ,1989-08-29 22:25:41.150 ,3,1,7.88,0.410,0.347,8.963E-02,4.167E-02,4.167E-02,5.77,0.362
1989-08-29T22:25:41.970 ,1989-08-29 22:26:29.150 ,4,1,7.78,0.407,0.440,0.101,0.000E+00,0.000E+00,6.89,0.388
1989-08-29T22:26:29.970 ,1989-08-29 22:27:17.150 ,5,1,7.82,0.408,0.440,0.101,0.000E+00,0.000E+00,6.65,0.375
1989-08-29T22:27:17.970 ,1989-08-29 22:28:05.150 ,6,1,7.65,0.404,0.509,0.109,8.333E-02,5.892E-02,7.20,0.394
1989-08-29T22:28:05.970 ,1989-08-29 22:28:53.150 ,7,1,8.74,0.432,0.509,0.109,0.000E+00,0.000E+00,6.55,0.372
1989-08-29T22:28:53.970 ,1989-08-29 22:29:58.720 ,8,1,7.77,0.348,0.503,9.346E-02,0.000E+00,0.000E+00,6.96,0.332
1989-08-29T22:29:58.780 ,1989-08-29 22:30:29.150 ,8,-1,7.43,0.497,0.521,0.134,0.000E+00,0.000E+00,7.04,0.481
1989-08-29T22:30:29.970 ,1989-08-29 22:31:17.150 ,7,-1,8.57,0.427,0.509,0.109,0.000E+00,0.000E+00,6.66,0.379
1989-08-29T22:31:17.970 ,1989-08-29 22:32:05.150 ,6,-1,7.74,0.406,0.417,9.818E-02,0.000E+00,0.000E+00,6.47,0.376
1989-08-29T22:32:05.970 ,1989-08-29 22:32:53.150 ,5,-1,8.03,0.414,0.440,0.101,0.000E+00,0.000E+00,6.25,0.366
1989-08-29T22:32:53.970 ,1989-08-29 22:33:41.150 ,4,-1,7.65,0.404,0.440,0.101,4.167E-02,4.167E-02,6.62,0.381
1989-08-29T22:33:41.970 ,1989-08-29 22:34:29.150 ,3,-1,7.14,0.390,0.556,0.113,4.167E-02,4.167E-02,6.91,0.382
1989-08-29T22:34:29.970 ,1989-08-29 22:35:17.150 ,2,-1,7.65,0.409,0.301,8.346E-02,4.167E-02,4.167E-02,6.46,0.370
1989-08-29T22:35:17.150 ,1989-08-29 22:36:05.530 ,1,-1,7.33,0.494,0.339,9.389E-02,0.000E+00,0.000E+00,7.40,0.487
1989-08-29T22:36:05.970 ,1989-08-29 22:36:53.150 ,1,1,7.02,0.391,0.370,9.259E-02,0.000E+00,0.000E+00,6.25,0.366